Terminal Aerodrome Forecast
Issued by NWS

Home | Current Version | Previous Version | Text Only | Print | Product List | Glossary On
Versions: 1 2 3 4 5 6 7 8 9 10 11 12 13 14 15 16 17 18 19 20 21 22 23 24
000
FTUS43 KDLH 261700
TAFHIB
TAF
KHIB 261739Z 2618/2718 34010KT P6SM OVC018
     FM261900 34006KT P6SM SCT017
      TEMPO 2619/2620 BKN017
     FM262300 33007KT P6SM SKC=

USA.gov is the U.S. government's official web portal to all federal, state and local government web resources and services.